Location: Kershaw
(34.5481°N, 80.5823°W)
Time: 16:04:00
(UTC+00:00)

Vanguard 1 Rocket - Pass Details

Date: 08 October 2022
Orbit: 650 x 4225 km, 34.3° (Epoch: 08 December)

Event Time Altitude Azimuth Distance (km) Brightness Sun altitude
Rises 01:33:54 0° 263° (W) 8,324 13.2 -32.6°
Reaches altitude 10° 01:40:07 10° 264° (W) 7,034 12.6 -33.8°
Maximum altitude 02:01:57 89° 179° (S) 2,537 9.3 -38.0°
Enters shadow 02:04:04 72° 90° (E) 2,451 9.1 -38.4°
Drops below altitude 10° 02:12:53 10° 89° (E) 3,861 - -40.1°
Sets 02:15:16 0° 89° (E) 4,532 - -40.6°
